Location: El Barrio
(40.4784°N, 5.2689°W)
Time: 09:55:13
(UTC+00:00)

Daily predictions for brighter satellites

Satellite Brightness Start Highest point End
(mag) Time Altitude Azimuth Time Altitude Azimuth Time Altitude Azimuth
ATLAS 3B R/B 4.1 19:54:51 10° NNW 20:01:43 32° NE 20:08:30 10° E
Cosmos 1980 3.7 19:57:48 10° SSW 20:03:26 82° ESE 20:09:06 10° NNE
SPOT 5 4.4 20:03:20 10° ESE 20:06:35 19° ENE 20:09:44 10° NNE
Cosmos 1812 3.3 20:05:31 10° SSW 20:09:01 58° W 20:12:34 10° N
Cosmos 1464 Rocket 4.5 20:08:24 10° N 20:14:23 43° ENE 20:20:15 10° SSE
Okean O Rocket 1.7 20:10:37 10° SSE 20:14:59 65° ENE 20:19:24 10° N
Terra 3.8 20:15:07 10° E 20:17:21 13° ENE 20:19:35 10° NNE
ATLAS 2AS CENTAUR R/B 3.2 20:14:49 10° SW 20:22:15 75° NW 20:29:27 10° NNE
Cosmos 1782 2.7 20:23:37 10° S 20:27:22 64° E 20:31:09 10° NNE
Intercosmos 24 4.1 20:29:05 10° SSW 20:32:39 72° W 20:36:59 10° N
Cosmos 1943 Rocket 2.2 20:30:14 10° NNW 20:35:55 74° ENE 20:41:02 13° SSE
Cosmos 972 4.4 20:32:42 10° S 20:37:34 62° ESE 20:42:24 10° NNE
CZ-4B R/B 4.0 20:32:24 10° S 20:37:38 51° W 20:42:49 10° NNW
ISS -0.8 20:36:26 10° NNW 20:37:54 12° N 20:39:23 10° NNE
Cosmos 2278 Rocket 2.7 20:35:09 10° NNW 20:40:43 59° WSW 20:46:15 10° S
OAO 2 Rocket 3.8 20:36:08 10° WSW 20:41:11 47° S 20:45:09 15° ESE
NOSS 3-1 (C) 4.2 20:33:37 10° NW 20:41:14 87° NE 20:49:24 14° SSE
Meteor 1-25 Rocket 4.2 20:37:03 10° N 20:42:40 90° W 20:48:20 10° S
SL-24 R/B - RUBIN 2 4.4 20:37:00 10° SSW 20:42:50 62° ESE 20:49:19 10° NE
Cosmos 2112 Rocket 4.3 20:41:51 10° S 20:46:55 46° ESE 20:51:59 10° NNE
Okean-O 2.6 20:45:51 13° SSE 20:49:48 80° ENE 20:54:13 10° N
USA 290 3.3 20:49:25 10° N 20:52:20 31° ENE 20:53:34 23° ESE
Cosmos-2242 3.8 20:49:16 10° SSW 20:53:21 52° W 20:57:29 10° N
Cosmos 1680 Rocket 3.5 20:51:52 10° S 20:57:07 70° ESE 21:02:22 10° NNE
Cosmos 2034 Rocket 4.1 20:52:04 10° N 20:58:14 64° E 21:03:13 17° SSE
Cosmos 1816 Rocket 4.5 20:55:35 10° S 21:01:45 86° E 21:08:03 10° N
Gbstr 26 Del rocket 3.7 20:59:13 10° NW 21:05:20 70° SW 21:08:23 24° SE
Cosmos 1515 4.2 21:02:29 10° SSW 21:05:52 52° W 21:09:17 10° N
Cosmos 1933 3.9 21:02:14 10° SSW 21:06:06 55° W 21:10:00 10° N
Tsikada Rocket 4.1 21:00:58 13° SSE 21:06:21 57° E 21:12:26 10° NNE
SL-16 R/B 2.1 21:06:45 10° SSW 21:12:24 84° ESE 21:18:07 10° NNE
CZ-4C R/B 4.0 21:09:33 10° N 21:13:12 52° WNW 21:16:59 10° SSW
MetOp-B 4.1 21:11:57 19° SSE 21:15:50 87° WSW 21:21:14 10° NNW
MOS 1 Rocket 4.4 21:13:56 24° ESE 21:16:04 34° ENE 21:20:42 10° N
Lacrosse 5 rocket 3.2 21:14:40 10° WSW 21:18:38 35° NW 21:22:33 10° NNE
Ariane Rocket 3.4 21:16:50 27° SE 21:19:12 46° ENE 21:24:01 10° N
Lacrosse 5 2.0 21:15:28 10° NW 21:20:34 67° NE 21:23:08 29° ESE
Cosmos 2056 Rocket 3.7 21:15:36 10° NNW 21:20:56 58° ENE 21:23:29 30° SE
IRS-1C Rocket 4.1 21:17:46 22° SSE 21:21:16 87° WSW 21:26:34 10° NNW
Cosmos 1624 Rocket 4.1 21:18:07 10° NNW 21:23:15 59° ENE 21:25:36 31° SE
Cosmos 44 3.7 21:20:16 10° NNW 21:24:56 48° NE 21:26:45 31° ESE
Cosmos 2221 2.4 21:22:26 21° S 21:25:14 87° E 21:29:35 10° N
Meteor 1-5 Rocket 4.4 21:21:12 10° NNW 21:27:07 73° W 21:31:11 20° S
Resurs 01 Rocket 4.2 21:26:59 10° SW 21:29:48 16° W 21:32:38 10° NW
Cosmos 2369 Rocket 2.8 21:24:45 10° N 21:30:02 41° ENE 21:32:23 28° ESE
USA 308 2.9 21:28:04 10° WNW 21:30:48 39° SW 21:31:01 38° SSW
ATLAS 5 CENTAUR R/B 4.4 21:27:14 10° WNW 21:31:00 18° WSW 21:35:10 10° SSW
Cosmos 1378 4.5 21:29:34 11° SW 21:32:27 32° WNW 21:35:27 10° NNW
FALCON 9 R/B 3.4 21:27:08 10° WSW 21:32:27 60° S 21:50:59 10° ESE
Cosmos 2084 4.2 21:29:32 10° NNW 21:32:59 33° NE 21:33:53 29° ENE
Cosmos 921 Rocket 3.0 21:37:33 25° SSW 21:40:07 89° E 21:44:37 10° NNE
Landsat 4 3.5 21:42:39 60° S 21:43:13 78° W 21:46:43 10° NNW
SPOT 5 3.7 21:41:27 20° SSW 21:44:19 43° W 21:48:39 10° NNW
Okean 3 Rocket 3.8 21:43:11 10° N 21:47:29 51° E 21:48:05 47° ESE
GEOS 3 Rocket 4.0 21:44:13 10° NNE 21:49:19 63° NW 21:54:21 10° SW
SL-8 R/B 3.5 21:46:53 10° SW 21:51:37 75° SE 21:56:23 10° ENE
Okean O Rocket 4.4 21:50:25 10° WSW 21:51:41 11° W 21:52:56 10° WNW
ARGOS Delta rocket 4.2 21:49:27 31° S 21:51:54 67° W 21:56:52 10° NNW
ATLAS 3B R/B 3.1 21:45:20 10° NW 21:53:11 73° WSW 21:57:02 33° SSE
Terra 1.9 21:52:38 38° S 21:54:21 68° WSW 21:59:03 10° NNW
Landsat 5 3.2 21:51:22 10° NNE 21:54:55 61° E 21:54:55 61° E
Aureole 3 Rocket 3.7 21:51:30 10° NNW 21:55:16 53° W 21:57:20 30° SSW
Cosmos 1943 3.2 21:53:56 40° SSE 21:55:46 58° ESE 22:01:21 10° NNE
Cosmos 1048 Rocket 3.9 21:59:00 47° SSE 22:00:20 67° ESE 22:05:26 10° NNE
ERS-1 Rocket 3.6 21:58:51 30° SSW 22:01:04 50° W 22:05:58 10° NNW
Cosmos 1842 Rocket 3.5 22:01:42 55° S 22:02:39 88° W 22:07:07 10° N
Cosmos 494 Rocket 3.9 22:00:56 30° SSW 22:03:31 82° WNW 22:08:39 10° NNE
Meteor 1-10 Rocket 4.2 22:02:23 44° SSE 22:04:07 67° E 22:09:46 10° NNE
SPOT 3 Rocket 3.6 22:04:43 43° S 22:06:22 71° WSW 22:11:31 10° NNW
Cosmos 1656 Rocket 3.6 22:01:45 10° NNW 22:07:13 76° WSW 22:08:45 48° S
Meteor 1-14 Rocket 4.4 22:07:58 10° NNW 22:13:47 71° W 22:15:54 41° SSW
Cosmos 1743 3.7 22:12:13 10° NNW 22:15:32 35° W 22:15:46 35° WSW
ISS -1.3 22:13:14 10° NNW 22:15:36 18° NNE 22:16:33 16° NE
ARIANE 5 R/B 4.0 22:16:04 25° ENE 22:16:04 25° ENE 22:19:33 10° NNE
Cosmos 1340 Rocket 4.4 22:17:22 25° NE 22:17:22 25° NE 22:19:34 10° NNE
USA 281 3.2 22:14:24 43° SSE 22:16:48 84° WSW 22:23:27 10° NNW
Meteor 1-11 Rocket 3.8 22:11:33 10° N 22:17:09 62° ENE 22:18:13 52° SE
USA 59 Rocket 2.7 22:19:47 10° NNE 22:20:48 11° NE 22:21:52 10° NE
Cosmos 1331 Rocket 4.3 22:17:28 10° N 22:22:36 52° ENE 22:23:13 49° E
Cosmos 1110 Rocket 4.1 22:19:17 10° NNW 22:24:33 60° ENE 22:25:12 56° ESE
CZ-2C R/B 4.4 22:23:56 10° NNE 22:27:22 39° ENE 22:27:22 39° ENE
Nadezhda 4 Rocket 3.9 22:30:39 56° SE 22:31:43 66° E 22:37:52 10° NNE
Cosmos 2297 4.3 22:26:33 10° NW 22:32:00 46° WSW 22:33:19 39° SW
Cosmos 1726 3.5 22:29:13 10° NNW 22:31:07 31° NNW 22:31:07 31° NNW
Cosmos 2279 Rocket 4.1 22:27:28 10° NNW 22:33:37 68° W 22:35:29 45° SSW
Molniya-1 3.7 22:35:27 82° ESE 22:35:27 82° ESE 22:42:59 10° NE
USA 229 DEB 4.0 22:39:18 10° NW 22:46:53 77° WSW 22:49:11 51° SSE
USA 229 4.0 22:39:23 10° NW 22:47:00 78° WSW 22:49:18 51° SSE
Cosmos 1743 Rocket 3.9 22:44:10 10° N 22:47:56 62° NNE 22:47:56 62° NNE
MetOp-A 4.4 22:49:22 44° W 22:49:22 44° W 22:53:43 10° NNW
Sich 1 3.4 22:48:52 10° N 22:52:35 64° NNW 22:52:35 64° NNW
Cosmos 1536 4.1 22:54:39 10° NNW 22:57:32 35° WNW 22:57:32 35° WNW
Cosmos 1975 4.5 22:54:50 10° N 22:57:09 27° NE 22:57:09 27° NE
Cosmos 1603 3.9 22:57:29 51° SW 22:58:48 68° WNW 23:04:30 10° NNE
Lacrosse 5 3.7 22:59:25 10° WNW 23:02:19 19° WSW 23:02:19 19° WSW
Meteor 1-27 Rocket 4.0 23:04:40 51° WSW 23:05:34 57° WNW 23:11:01 10° N
Cosmos 1452 Rocket 3.8 23:02:01 10° NNW 23:07:02 54° W 23:07:02 54° W
USA 267 3.1 23:03:43 10° NE 23:10:14 68° SE 23:10:42 66° SSE
Cosmos 2026 Rocket 3.9 23:12:23 70° SE 23:12:49 73° E 23:19:06 10° NNE
Cosmos 2369 Rocket 3.5 23:09:11 10° NW 23:13:48 27° WSW 23:14:10 27° WSW
Meteor 1-18 Rocket 4.2 23:33:57 87° E 23:33:57 87° E 23:39:54 10° N
ALOS 2 3.6 23:36:13 43° NNE 23:36:13 43° NNE 23:39:25 10° N
Spot 4 4.3 23:37:28 60° N 23:37:28 60° N 23:41:21 10° NNW
H-2A R/B 3.8 23:38:30 37° NW 23:38:30 37° NW 23:41:11 10° NNW
Cosmos 1553 Rocket 4.2 23:33:33 10° N 23:39:30 53° E 23:39:39 53° E
Meteor 2-4 Rocket 3.9 23:42:30 65° W 23:42:45 66° W 23:48:39 10° N
USA 234 4.4 23:38:50 12° E 23:44:22 39° NNE 23:50:20 10° NW
Lacrosse 4 Rocket 3.3 23:43:44 10° N 23:46:28 25° NE 23:46:28 25° NE
ARIANE 5 R/B 4.4 23:53:32 24° WNW 23:53:32 24° WNW 23:56:01 10° NW
Cosmos 1818 4.1 23:53:37 51° ENE 23:53:37 51° ENE 23:57:49 10° NE
